Hettinger, ND

2:07 AM MDT on July 21, 2017 (GMT -0600)
Hettinger Municipal

Weather History for KHEI - January, 2013

Change the Weather History Date:

Tuesday, January 22, 2013

  Actual Average Record
Temperature  
Mean Temperature 16 °F -  
Max Temperature 25 °F 28 °F 45 °F (2015)
Min Temperature 6 °F 6 °F -23 °F (2003)
Degree Days  
Heating Degree Days 49 48  
Month to date heating degree days 1022 1071  
Since 1 July heating degree days 4455 4650  
Moisture  
Dew Point 6 °F    
Average Humidity 80    
Maximum Humidity 88    
Minimum Humidity 62    
Precipitation  
Precipitation 0.01 in 0.01 in 0.15 in (2012)
Month to date precipitation 0.03 0.21  
Year to date precipitation 0.03 0.21  
Sea Level Pressure  
Sea Level Pressure 30.19 in    
Wind  
Wind Speed 8 mph (SSW)    
Max Wind Speed 13 mph    
Max Gust Speed 15 mph    
Visibility 9 miles    
Events Snow    
T = Trace of Precipitation, MM = Missing Value Source: NWS Daily Summary

Daily Weather History Graph

Daily Weather History Graph

Search for Another Location

Airport or City:

Trip Planner

Search our weather history database for the weather conditions in past years. The results will help you decide how hot, cold, wet, or windy it might be!

Date:

Astronomy

Jan. 22, 2013 Rise Set
Actual Time 7:23 AM MST 4:41 PM MST
Civil Twilight 6:50 AM MST 5:14 PM MST
Nautical Twilight 6:13 AM MST 5:51 PM MST
Astronomical Twilight 5:38 AM MST 6:26 PM MST
Moon 1:04 PM MST (1/22) 3:48 AM MST (1/22)
Length of Visible Light 10h 24m
Length of Day
9h 18m
Waxing Gibbous, 83% of the Moon is Illuminated
Jan 22
Waxing Gibbous
Jan 26
Full
Feb 3
Last Quarter
Feb 10
New
Feb 17
First Quarter

Hourly Weather History & Observations

Time (MST) Temp. Windchill Dew Point Humidity Pressure Visibility Wind Dir Wind Speed Gust Speed Precip Events Conditions
12:53 AM 6.1 °F -4.3 °F 1.9 °F 83% 30.27 in 5.0 mi SE 5.8 mph - 0.00 in Snow Light Snow
1:42 AM 6.8 °F -0.1 °F 1.4 °F 79% 30.09 in 2.0 mi SE 3.5 mph - 0.00 in Snow Light Snow
1:53 AM 7.0 °F 0.1 °F 1.9 °F 80% 30.27 in 2.5 mi SSE 3.5 mph - 0.00 in Snow Light Snow
2:00 AM 6.8 °F -0.1 °F 1.4 °F 79% 30.09 in 4.0 mi SE 3.5 mph - 0.00 in Snow Light Snow
2:39 AM 6.8 °F -3.5 °F 3.2 °F 85% 30.09 in 10.0 mi SSE 5.8 mph - 0.00 in   Overcast
2:53 AM 7.0 °F -3.3 °F 3.0 °F 84% 30.27 in 10.0 mi SSE 5.8 mph - 0.00 in   Overcast
3:53 AM 7.0 °F -3.3 °F 3.0 °F 84% 30.25 in 10.0 mi SSE 5.8 mph - 0.00 in   Overcast
4:04 AM 6.8 °F -5.9 °F 3.2 °F 85% 30.08 in 7.0 mi SSE 8.1 mph - 0.00 in Snow Light Snow
4:53 AM 7.0 °F -4.5 °F 3.0 °F 84% 30.25 in 4.0 mi SE 6.9 mph - 0.00 in Snow Light Snow
5:04 AM 6.8 °F -5.9 °F 3.2 °F 85% 30.06 in 8.0 mi SE 8.1 mph - 0.00 in   Overcast
5:53 AM 7.0 °F -4.5 °F 3.0 °F 84% 30.26 in 10.0 mi SSE 6.9 mph - 0.00 in   Overcast
6:04 AM 6.8 °F -4.8 °F 3.2 °F 85% 30.08 in 10.0 mi SSE 6.9 mph - N/A   Overcast
6:53 AM 7.0 °F -6.6 °F 3.0 °F 84% 30.25 in 10.0 mi SSE 9.2 mph - N/A   Overcast
7:53 AM 7.0 °F -5.7 °F 3.9 °F 87% 30.25 in 10.0 mi South 8.1 mph - N/A   Overcast
8:53 AM 9.0 °F -4.2 °F 3.9 °F 80% 30.25 in 10.0 mi South 9.2 mph - N/A   Overcast
9:53 AM 10.9 °F -0.8 °F 5.0 °F 77% 30.25 in 10.0 mi SSW 8.1 mph - N/A   Overcast
10:53 AM 12.9 °F -0.2 °F 7.0 °F 77% 30.23 in 10.0 mi SSW 10.4 mph - 0.01 in   Overcast
11:53 AM 16.0 °F 3.6 °F 8.1 °F 71% 30.19 in 10.0 mi SW 10.4 mph - N/A   Clear
12:53 PM 18.0 °F 7.7 °F 9.0 °F 68% 30.16 in 10.0 mi SW 8.1 mph - N/A   Clear
1:53 PM 21.9 °F 11.7 °F 12.0 °F 66% 30.15 in 10.0 mi WSW 9.2 mph - N/A   Clear
2:53 PM 24.1 °F 13.7 °F 14.0 °F 65% 30.14 in 10.0 mi West 10.4 mph - N/A   Clear
3:53 PM 23.0 °F 13.1 °F 14.0 °F 68% 30.15 in 10.0 mi WNW 9.2 mph - N/A   Clear
4:53 PM 16.0 °F 5.3 °F 10.9 °F 81% 30.17 in 10.0 mi NW 8.1 mph - N/A   Clear
5:53 PM 16.0 °F 2.9 °F 10.9 °F 81% 30.18 in 10.0 mi NW 11.5 mph - N/A   Clear
6:53 PM 12.9 °F -0.2 °F 9.0 °F 84% 30.19 in 10.0 mi WNW 10.4 mph - N/A   Clear
7:53 PM 14.0 °F 3.9 °F 10.0 °F 84% 30.19 in 10.0 mi WNW 6.9 mph - N/A   Clear
8:53 PM 12.9 °F 3.8 °F 9.0 °F 84% 30.21 in 10.0 mi NW 5.8 mph - N/A   Clear
9:53 PM 9.0 °F -0.9 °F 5.0 °F 84% 30.24 in 10.0 mi WNW 5.8 mph - N/A   Clear
10:53 PM 10.0 °F -0.9 °F 6.1 °F 84% 30.25 in 10.0 mi NW 6.9 mph - N/A   Clear
11:53 PM 9.0 °F -0.9 °F 5.0 °F 84% 30.25 in 10.0 mi NW 5.8 mph - N/A   Clear